Regional Weather Roundup
Issued by NWS Portland, ME

Current Version | Previous Version | Text Only | Print | Product List | Glossary On
Versions: 1 2 3 4 5 6 7 8 9 10 11 12 13 14 15 16 17 18 19 20 21 22 23 24 25 26 27 28 29 30 31 32 33 34 35 36 37 38 39 40 41 42 43 44 45 46 47 48 49 50
493
ASUS41 KGYX 011210
RWRGYX
WEATHER ROUNDUP FOR MAINE AND NEW HAMPSHIRE
NATIONAL WEATHER SERVICE GRAY ME
800 AM EDT SAT OCT 01 2016

MEZ002-005-006-010-012-015-018-020-021-024-026-027-029-011300-
MAINE

CITY           SKY/WX    TMP DP  RH WIND       PRES   REMARKS
PORTLAND       CLOUDY    54  42  64 NE5       30.38S
6HR MIN TEMP:  51; 6HR MAX TEMP:  54; 6HR PCP: TRACE;

SANFORD        LGT RAIN  53  42  66 N8        30.37S
BAR HARBOR     MOSUNNY   49  44  83 CALM      30.41S
WISCASSET      CLOUDY    53  42  66 CALM      30.40S
6HR MIN TEMP:  49; 6HR MAX TEMP:  53;

ROCKLAND       CLOUDY    54  47  77 NE6       30.38F
FRYEBURG       CLOUDY    50  47  89 CALM      30.40S
6HR MIN TEMP:  47; 6HR MAX TEMP:  50; 6HR PCP:  0.02;

LEWISTONAUBURN CLOUDY    51  46  83 N5        30.39S
AUGUSTA        LGT RAIN  50  44  80 N6        30.40F
6HR MIN TEMP:  47; 6HR MAX TEMP:  50; 6HR PCP: TRACE;

WATERVILLE     PTSUNNY   49  46  90 N5        30.38S
BANGOR         CLOUDY    49  45  86 CALM      30.41S
6HR MIN TEMP:  45; 6HR MAX TEMP:  49;

GREENVILLE       N/A     52  44  74 CALM      30.40R
6HR MIN TEMP:  49; 6HR MAX TEMP:  52;

MILLINOCKET    MOSUNNY   47  44  90 CALM      30.43S
6HR MIN TEMP:  45; 6HR MAX TEMP:  47;

HOULTON        CLOUDY    42  42 100 CALM      30.41S
6HR MIN TEMP:  34; 6HR MAX TEMP:  42; 6HR PCP: TRACE;

PRESQUE ISLE   MOSUNNY   40  39  97 CALM      30.43S
6HR MIN TEMP:  36; 6HR MAX TEMP:  40;

FRENCHVILLE    CLOUDY    45  40  82 N3        30.41S
6HR MIN TEMP:  41; 6HR MAX TEMP:  46;

CARIBOU        CLOUDY    43  40  89 CALM      30.41S
6HR MIN TEMP:  39; 6HR MAX TEMP:  43;

$$

NHZ002-005-008-009-011-012-014-011300-
NEW HAMPSHIRE

CITY           SKY/WX    TMP DP  RH WIND       PRES   REMARKS
PORTSMOUTH     LGT RAIN  50  47  90 N9        30.34F FOG
ROCHESTER      LGT RAIN  49  43  80 N3        30.36S
6HR MIN TEMP:  49; 6HR MAX TEMP:  52; 6HR PCP:  0.03;

NASHUA         CLOUDY    51  50  96 NW6       30.35F
MANCHESTER     LGT RAIN  51  48  89 N8        30.34S
6HR MIN TEMP:  51; 6HR MAX TEMP:  52; 6HR PCP:  0.10;

CONCORD        CLOUDY    51  48  89 N3        30.37S
6HR MIN TEMP:  49; 6HR MAX TEMP:  53; 6HR PCP:  0.09;

LACONIA        LGT RAIN  51  46  83 E6        30.38S
PLYMOUTH       RAIN      50  48  94 CALM      30.38S
BERLIN         CLOUDY    47  42  83 CALM      30.38S
6HR MIN TEMP:  41; 6HR MAX TEMP:  47;

WHITEFIELD     CLOUDY    49  41  74 CALM      30.37S
6HR MIN TEMP:  46; 6HR MAX TEMP:  53;

JAFFREY        CLOUDY    47  45  93 VRB3      30.35S FOG
6HR MIN TEMP:  47; 6HR MAX TEMP:  48; 6HR PCP:  0.36;

KEENE          LGT RAIN  47  46  97 N6        30.36S
LEBANON        CLOUDY    49  48  97 CALM      30.37F FOG
6HR MIN TEMP:  48; 6HR MAX TEMP:  54; 6HR PCP:  0.09;

MT WASHINGTON  LGT RAIN  45  18  33 SE14        N/A
6HR MIN TEMP:  44; 6HR MAX TEMP:  47; 6HR PCP: TRACE;

$$

VTZ005-007-008-011300-
VERMONT

CITY           SKY/WX    TMP DP  RH WIND       PRES   REMARKS
ST JOHNSBURY     N/A     49  46  90 MISG      30.36S
MONTPELIER     LGT RAIN  46  42  86 S9        30.41S
BURLINGTON     CLOUDY    52  45  77 S5        30.33F
$$

MAZ007-012-024-CTZ003-RIZ002-NYZ038-NYZ072-011300-
SOUTHERN NEW ENGLAND AND NY

CITY           SKY/WX    TMP DP  RH WIND       PRES   REMARKS
BOSTON         LGT RAIN  56  56 100 NE16      30.31S FOG
WORCESTER      LGT RAIN  50  49  96 NE14G22   30.29S VSB 1/4
NANTUCKET      LGT RAIN  62  60  93 E21G29    30.17F FOG
PROVIDENCE     CLOUDY    58  56  93 N13       30.26S
HARTFORD       DRIZZLE   50  48  93 N10       30.29F FOG
ALBANY         CLOUDY    50  47  89 N6        30.31S
NEW YORK CITY  DRIZZLE   58  56  93 NE13      30.22R FOG
$$

ANZ081-ANZ082-ANZ150-NHZ014-MEZ023>029-011300-
COASTAL MARINE OBSERVATIONS

STATION/POSITION TIME  TEMP    WIND        PRES    WAVE
                       AIR SEA DIR/SP/G            HT/PER
                 (UTC) (F)     (DEG/KT/KT) (MB)    (FT/S)
MOUNT DESERT ROC 1200   55      50/ 10/ 10 1029.1R
MATINICUS ROCK   1200   54      60/ 15/ 16 1028.2S
ISLE OF SHOALS   1200   55      40/ 18/ 20 1026.9F
JEFFREYS LEDGE   1138      61                N/A     6/ 8
CASHES LEDGE BUO 1150   58 59   70/ 16/ 19 1027.4F   5/ 6
GEORGES BANK BUO 1150   68 68              1022.8F   7/ 7
$$

.............KEY..............
   WCI - WIND CHILL
   TC  - TEMPERATURE IN CELSIUS
   VSB - VISIBILITY IN MILES
   HX  - HEAT INDEX
   FAIR- INDICATES FEW OR NO CLOUDS BELOW 12,000 FT, WITH NO
         SIGNIFICANT WEATHER AND/OR OBSTRUCTIONS TO VISIBILITY.






USA.gov is the U.S. government's official web portal to all federal, state and local government web resources and services.